Regional Weather Roundup
Issued by NWS Wakefield, VA

Home | Current Version | Previous Version | Graphics & Text | Print | Product List | Glossary On
Versions: 1 2 3 4 5 6 7 8 9 10 11 12 13 14 15 16 17 18 19 20 21 22 23 24 25 26 27 28 29 30 31 32 33 34 35 36 37 38 39 40 41 42 43 44 45 46
000
ASUS41 KAKQ 030415
RWRAKQ

REGIONAL WEATHER ROUNDUP
NATIONAL WEATHER SERVICE WAKEFIELD VA
1200 AM EDT THU SEP 03 2015

Note: "fair" indicates few or no clouds below 12,000 feet with no
significant weather and/or obstructions to visibility. * = Denotes
station may not report precipitation (e.g., rain,snow,etc.),
thunder or fog.

VAZ042-051-052>054-056-030500-
NORTHERN VIRGINIA

CITY           SKY/WX    TMP DP  RH WIND       PRES   REMARKS
WASH NATIONAL  FAIR      77  70  79 SW3       29.95S
DULLES         CLEAR     72  68  87 CALM      29.96S
FORT BELVOIR   CLEAR     70  68  94 CALM      29.95S
QUANTICO       CLEAR     74  67  78 NW5       29.95F
FREDERICKSBRG* CLEAR     74  69  83 CALM      29.96R
STAFFORD*      CLEAR     69  66  89 CALM      30.00S
WARRENTON      CLEAR     67  66  96 CALM      29.97S
CULPEPER*      CLEAR     67  65  94 CALM      29.98S
MANASSAS*      CLEAR     70  70 100 CALM      29.96S
LEESBURG*      CLEAR     73  70  88 W10       29.97S
WINCHESTER     CLEAR     70  66  88 SW3       29.99S
FRONT ROYAL*   FAIR      68  64  88 S8        29.99S
LURAY*         FOG       63  63 100 CALM      30.02S VSB 1/2
$$

VAZ048-049-060>072-079>083-030500-
CENTRAL AND SOUTH CENTRAL VIRGINIA

CITY           SKY/WX    TMP DP  RH WIND       PRES   REMARKS
RICHMOND       PTCLDY    72  69  90 W8        29.97S
CHESTERFIELD*  FAIR      70  57  64 W5        29.99F
PETERSBURG*    PTCLDY    69  69 100 NW3       29.99R
HANOVER        PTCLDY    71  67  87 SW3       29.99S
TAPPAHANNOCK*  CLEAR     69  66  89 CALM      29.97S
QUINTON*       FAIR      70  69  98 W6        29.97R
CHARLOTTSVILLE CLEAR     69  65  86 CALM      29.99S
GORDONSVILLE*  FAIR      67  65  93 SW5       29.98R
ORANGE*        CLEAR     70  64  83 S5        29.99S
LOUISA*        CLEAR     70  66  88 CALM      29.98R
BUMPASS*       FAIR      67  67  99 CALM      29.99R
FARMVILLE*     CLEAR     69  69 100 W5        29.99F
CREWE*         FAIR     N/A N/A N/A CALM      29.99S
FORT PICKETT*  FAIR      65  65  97 W7        29.99F
CHASE CITY*    FAIR      70  70 100 CALM      30.00S
CLARKSVILLE*   MOCLDY    68  68 100 CALM      29.99S VSB 1
SOUTH HILL*    PTCLDY    68  68  98 CALM      30.04S
LAWRENCEVILLE* FAIR      70  70 100 NW5       29.98R
EMPORIA*       MOCLDY    70  70 100 CALM      29.98S FOG
$$

VAZ088>098-030500-
SOUTHEAST VIRGINIA

CITY           SKY/WX    TMP DP  RH WIND       PRES   REMARKS
NORFOLK        CLOUDY    73  69  87 SW7       29.95F
VIRGINIA BEACH CLOUDY    75  68  78 SW6       29.94F
NORFOLK NAVAL  CLOUDY    74  69  85 SW7       29.96F
WEST POINT*    MOCLDY    75  71  87 W6        29.97R
SALUDA*        FAIR      73  72  95 W3        29.95R
NEWPORT NEWS   CLOUDY    73  70  90 W5        29.95S
LANGLEY AFB    CLOUDY    73  70  91 W3        29.94F
FORT EUSTIS    CLOUDY    74  74 100 W1        29.93F
WILLIAMSBURG*  CLOUDY    75  72  88 CALM      29.96F
HR EXEC AP*      N/A     72  70  94 CALM      29.97F
FRANKLIN*      CLOUDY    71  70  97 SW3       29.96F
WAKEFIELD      CLOUDY    74  68  81 CALM      29.96S
$$

VAZ020-022-025-037-045-030500-
WEST CENTRAL AND SOUTHWEST VIRGINIA

CITY           SKY/WX    TMP DP  RH WIND       PRES   REMARKS
STAUNTON*      CLEAR     67  65  91 CALM      30.06R FOG
WAYNESBORO*    FAIR      66  65  95 SW3       30.05S
HOT SPRINGS VA CLEAR     67  60  79 NW6       30.17S
LYNCHBURG      CLEAR     66  63  90 W3        30.04S
DANVILLE       CLEAR     68  65  90 CALM      30.01F
SOUTH BOSTON*    N/A     66  65  95 CALM      30.00S VSB 1/4
MARTINSVILLE   CLEAR     68  68 100 CALM      30.06S
ROANOKE        PTCLDY    72  64  76 N3        30.07R
BLACKSBURG     CLEAR     67  65  91 CALM      30.13S
DUBLIN*        CLOUDY    69  65  86 W3        30.12S
MARION*        CLEAR     65  63  93 CALM      30.16S
HILLSVILLE*    CLEAR     68  63  83 CALM      30.13S
RICHLANDS*     FAIR      71  32  24 CALM      30.15F
WISE*          CLEAR     70  59  68 N3        30.16F
ABINGDON*      CLEAR     68  62  81 CALM      30.11S
$$

MDZ021>025-VAZ099-100-030500-
SOUTHERN MARYLAND AND THE DELMARVA PENINSULA

CITY           SKY/WX    TMP DP  RH WIND       PRES   REMARKS
PATUXENT RIVER CLEAR     75  67  76 W13       29.94S
BAY BRIDGE APT   N/A     79  70  73 W5        29.92F
LEONARDTOWN    NOT AVBL
DOVER          CLEAR     75  73  93 SW2       29.90S
GEORGETOWN     CLEAR     75  71  87 CALM      29.92F
EASTON         NOT AVBL
CAMBRIDGE      CLEAR     77  72  83 W3        29.92S
SALISBURY      MOCLDY    75  74  96 SW5       29.92F FOG
OCEAN CITY     MOCLDY    76  72  87 W6        29.92S
WALLOPS ISLAND MOCLDY    77  73  87 W7        29.93F
ACCOMACK*      MOCLDY   N/A N/A N/A W3        29.94S
$$

NCZ012>017-030>032-030500-
NORTH CENTRAL AND EASTERN NORTH CAROLINA

CITY           SKY/WX    TMP DP  RH WIND       PRES   REMARKS
ROANOKE RAPIDS FAIR      70  68  94 S5        29.98S
RALEIGH        MOCLDY    75  67  76 NE6       30.00S THUNDER
ELIZABETH CITY CLOUDY    72  70  93 W10       29.97S
AHOSKIE*       LGT RAIN  69  68  97 CALM      29.96F
EDENTON*       RAIN      72  67  85 NW9       29.98R
CURRITUCK*     CLOUDY    72  68  88 W7        29.97R
KILL DEVIL HLS CLOUDY    77  73  89 W5        29.95R
MANTEO         CLOUDY    78  74  88 NW3       29.96R
CAPE HATTERAS  PTCLDY    79  73  82 SW6       29.96S
TARBORO*       LGT RAIN  70  69  95 SW3       29.99F
GOLDSBORO      MOCLDY    77  69  77 NE15G21   29.98R
WASHINGTON     RAIN      69  67  94 N5        30.01S
GREENVILLE     HVY RAIN  72  70  94 NE15      30.03F
NEW BERN       MOCLDY    77  74  90 SW5       29.97F
WILMINGTON     PTCLDY    78  74  87 SW7       29.98S
$$

VAZ048-030500-
ELSEWHERE

CITY           SKY/WX    TMP DP  RH WIND       PRES   REMARKS
HARRISBURG PA  PTCLDY    76  67  73 NW8       29.93S
BALTIMORE      PTCLDY    74  67  78 W6        29.93S
ANNAPOLIS      CLEAR     76  71  85 W3        29.92F
ANDREWS AFB    FAIR      76  69  80 SW5       29.94S
PHILADELPHIA   CLEAR     77  68  73 W8        29.92R
HENDERSON NC   PTCLDY    70  67  90 CALM      30.00S
GREENSBORO     MOCLDY    78  66  66 CALM      30.02F
ROCKY MOUNT    TSTM      71  70  96 SE7       29.98F FOG
$$

VAZ100-030500-
MARINE

STATION/POSITION TIME  TEMP    WIND        PRES    WAVE   SWELL
                       AIR SEA DIR/SP/G            HT/PER HT/PER
                 (UTC) (F)     (DEG/KT/KT) (MB)    (FT/S) (FT/S)
BRANDYWINE LGT   0300   78 77  210/  9/ 10 1013.2F
CAPE MAY NJ      0300   77 80  190/  4/  7 1012.7F
LEWES DE         0300   78 76  230/  4/  5 1012.9F
15NM E FENWICK I 0350   79 79  210/  6/  6 1013.1F   1/10   2/10
OCEAN-CITY-INLET 0300   78 79  310/  2/  2 1012.4R
THOMAS POINT MD  0400   78 80  290/ 10/ 11 1013.7
GOOSES REEF MD   0400   79 80  290/ 12/ 14 1014.4R
COVE POINT MD    0300   77     280/ 12/ 16 1014.2R
SOLOMONS ISLAND  0300      81                N/A
BISHOPS HEAD MD  0300   80 84  270/ 14/ 15 1012.7R
PINEY POINT MD   0305          310/ 11/ 12   N/A
POTOMAC MD       0400   78 81  290/ 12/ 14 1012.7S   1/ 2
CAMBRIDGE MD     0300   79 81  240/  6/  7 1012.3S
LEWISETTA VA     0300   76 82  300/  6/  7 1013.4F
RAPPAHANNOCK LGT 0300          260/ 10/ 10 1014.4R
STINGRAY PT      0400   78 80  270/  8/ 12 1014.4R
YORK RVR RNG VA  0300   76     250/ 13/ 14 1013.4F
YORKTOWN VA      0300   74 81  220/  5/  8 1013.7F
JAMESTOWN VA     0400   74 81  290/  2/  4   N/A
DOMINION TERM VA 0300   74     260/  8/  9 1014.2F
KIPTOPEKE VA     0300      80  270/  8/ 10   N/A
CHES BAY BRIDGE  0300   76 80  230/ 14/ 15 1014.0R
CAPE HENRY VA    0300   75     270/  9/ 12   N/A
CHESAPEAKE LGHT  0300   78     280/ 15/ 18 1014.6R
WILLOUBY STN VA  0300   75     270/  7/  9 1015.0F
CAPE HENRY BUOY  0328      80                N/A     2/13
1ST LANDING BUOY 0400      79              1013.6F   1/ 3
CAPE CHARLES BUO 0326      78                N/A     2/13   2/13
OFFSHORE WE BUOY 0311      80                N/A     2/ 3   2/13
64NM E OF VA BCH 0350   79 79  260/  8/ 10 1013.4S   2/ 9   2/ 9
DUCK PIER NC     0300   78 79  250/  8/  9 1013.7R
44100 DUCK FRF   0324      79                N/A     1/13
44056 DUCK FRF   0311      81                N/A     1/13
OREGON INLET NC  0300   80 84  280/  5/  7 1014.6R
HATTERAS NC      0300   80 83  220/  4/  7 1014.4F
DIAMOND SHLS NC  0350   82 86  200/  4/  4 1014.5F   1/13   2/13
CAPE LOOKOUT NC  0400   80     230/  6/  7 1014.6F
$$


USA.gov is the U.S. government's official web portal to all federal, state and local government web resources and services.